• In Italy
  • List of Countries
  • For 7 days
  • Water Temperature
  • Satellite Maps
  • Weather Map
  • Weather Widgets
  • user-avatar
    Login

    Hourly Weather Bangalore

    Today, 23 September, Saturday

    Time Temperature Precipitation Wind Pressure Humidity
    00:00 +23°C° 0 mm 2 mps 683 mmHg 79%
    01:00 +23°C° 0 mm 2 mps 683 mmHg 81%
    02:00 +21°C° 0 mm 2 mps 682 mmHg 83%
    03:00 +21°C° 0 mm 2 mps 682 mmHg 85%
    04:00 +21°C° 0 mm 2 mps 682 mmHg 87%
    05:00 +21°C° 0 mm 2 mps 682 mmHg 89%
    06:00 +23°C° 0 mm 2 mps 683 mmHg 84%
    07:00 +24°C° 0 mm 2 mps 683 mmHg 78%
    08:00 +25°C° 0 mm 2 mps 684 mmHg 73%
    09:00 +26°C° 0 mm 2 mps 684 mmHg 67%
    10:00 +28°C° 0 mm 2 mps 684 mmHg 61%
    11:00 +29°C° 0 mm 3 mps 684 mmHg 54%
    12:00 +30°C° 0 mm 3 mps 684 mmHg 52%
    13:00 +30°C° 0 mm 3 mps 683 mmHg 49%
    14:00 +31°C° 0 mm 3 mps 683 mmHg 47%
    15:00 +30°C° 0 mm 2 mps 682 mmHg 49%
    16:00 +30°C° 0 mm 2 mps 682 mmHg 51%
    17:00 +29°C° 0 mm 1 mps 682 mmHg 54%
    18:00 +29°C° 0.1 mm 1 mps 682 mmHg 55%
    19:00 +28°C° 0.1 mm 1 mps 683 mmHg 56%
    20:00 +27°C° 0.1 mm 1 mps 683 mmHg 57%
    21:00 +27°C° 0 mm 1 mps 683 mmHg 58%
    22:00 +26°C° 0 mm 1 mps 683 mmHg 60%
    23:00 +26°C° 0 mm 1 mps 683 mmHg 61%

    Tomorrow, 24 September, Sunday

    Time Temperature Precipitation Wind Pressure Humidity
    00:00 +25°C° 0 mm 1 mps 683 mmHg 65%
    01:00 +25°C° 0 mm 1 mps 683 mmHg 68%
    02:00 +24°C° 0 mm 1 mps 682 mmHg 72%
    03:00 +24°C° 0 mm 2 mps 682 mmHg 75%
    04:00 +23°C° 0 mm 2 mps 682 mmHg 79%
    05:00 +23°C° 0 mm 2 mps 682 mmHg 82%
    06:00 +24°C° 0 mm 2 mps 683 mmHg 80%
    07:00 +25°C° 0 mm 2 mps 683 mmHg 77%
    08:00 +26°C° 0 mm 2 mps 684 mmHg 74%
    09:00 +27°C° 0.1 mm 2 mps 684 mmHg 68%
    10:00 +28°C° 0.1 mm 2 mps 684 mmHg 62%
    11:00 +30°C° 0.1 mm 2 mps 684 mmHg 56%
    12:00 +30°C° 1.6 mm 2 mps 683 mmHg 57%
    13:00 +30°C° 1.6 mm 2 mps 682 mmHg 57%
    14:00 +30°C° 1.6 mm 2 mps 682 mmHg 57%
    15:00 +29°C° 2.6 mm 2 mps 682 mmHg 64%
    16:00 +27°C° 2.6 mm 2 mps 681 mmHg 70%
    17:00 +26°C° 2.6 mm 1 mps 681 mmHg 77%
    18:00 +26°C° 1.2 mm 1 mps 682 mmHg 78%
    19:00 +25°C° 1.2 mm 1 mps 682 mmHg 79%
    20:00 +25°C° 1.2 mm 1 mps 683 mmHg 81%
    21:00 +25°C° 0.4 mm 2 mps 683 mmHg 82%
    22:00 +24°C° 0.4 mm 2 mps 683 mmHg 84%
    23:00 +24°C° 0.4 mm 2 mps 683 mmHg 85%

    Day after tomorrow, 25 September, Monday

    Time Temperature Precipitation Wind Pressure Humidity
    00:00 +22°C° 0.3 mm 3 mps 682 mmHg 86%
    01:00 +22°C° 0.3 mm 3 mps 682 mmHg 87%
    02:00 +22°C° 0.3 mm 4 mps 681 mmHg 88%
    03:00 +22°C° 0.1 mm 3 mps 681 mmHg 89%
    04:00 +21°C° 0.1 mm 3 mps 681 mmHg 89%
    05:00 +21°C° 0.1 mm 3 mps 682 mmHg 90%
    06:00 +22°C° 0.1 mm 3 mps 682 mmHg 86%
    07:00 +24°C° 0.1 mm 3 mps 683 mmHg 83%
    08:00 +24°C° 0.1 mm 3 mps 683 mmHg 79%
    09:00 +25°C° 0.3 mm 3 mps 683 mmHg 74%
    10:00 +27°C° 0.3 mm 4 mps 683 mmHg 69%
    11:00 +28°C° 0.3 mm 4 mps 683 mmHg 64%
    12:00 +28°C° 0.9 mm 3 mps 682 mmHg 63%
    13:00 +29°C° 0.9 mm 3 mps 681 mmHg 62%
    14:00 +29°C° 0.9 mm 3 mps 681 mmHg 61%
    15:00 +28°C° 2 mm 3 mps 681 mmHg 67%
    16:00 +27°C° 2 mm 3 mps 680 mmHg 73%
    17:00 +26°C° 2 mm 2 mps 680 mmHg 78%
    18:00 +25°C° 1.9 mm 2 mps 681 mmHg 80%
    19:00 +25°C° 1.9 mm 3 mps 682 mmHg 82%
    20:00 +24°C° 1.9 mm 3 mps 682 mmHg 83%
    21:00 +24°C° 1.6 mm 3 mps 682 mmHg 85%
    22:00 +22°C° 1.6 mm 3 mps 682 mmHg 86%
    23:00 +22°C° 1.6 mm 3 mps 682 mmHg 88%

    26 September, Tuesday

    Time Temperature Precipitation Wind Pressure Humidity
    00:00 +22°C° 1 mm 3 mps 682 mmHg 89%
    01:00 +21°C° 1 mm 3 mps 681 mmHg 90%
    02:00 +21°C° 1 mm 3 mps 681 mmHg 92%
    03:00 +21°C° 1.3 mm 3 mps 681 mmHg 92%
    04:00 +21°C° 1.3 mm 3 mps 681 mmHg 93%
    05:00 +21°C° 1.3 mm 3 mps 681 mmHg 93%
    06:00 +21°C° 0.5 mm 3 mps 682 mmHg 91%
    07:00 +22°C° 0.5 mm 3 mps 682 mmHg 90%
    08:00 +22°C° 0.5 mm 3 mps 683 mmHg 88%
    09:00 +24°C° 0.3 mm 3 mps 683 mmHg 84%
    10:00 +25°C° 0.3 mm 3 mps 683 mmHg 80%
    11:00 +26°C° 0.3 mm 3 mps 683 mmHg 75%
    12:00 +26°C° 0.3 mm 3 mps 682 mmHg 73%
    13:00 +27°C° 0.3 mm 3 mps 681 mmHg 71%
    14:00 +27°C° 0.3 mm 3 mps 681 mmHg 69%
    15:00 +26°C° 0.4 mm 3 mps 681 mmHg 73%
    16:00 +26°C° 0.4 mm 2 mps 681 mmHg 76%
    17:00 +25°C° 0.4 mm 2 mps 681 mmHg 79%
    18:00 +24°C° 0.3 mm 2 mps 681 mmHg 80%
    19:00 +24°C° 0.3 mm 2 mps 682 mmHg 80%
    20:00 +23°C° 0.3 mm 2 mps 682 mmHg 80%
    21:00 +23°C° 0.1 mm 2 mps 682 mmHg 81%
    22:00 +23°C° 0.1 mm 2 mps 682 mmHg 82%
    23:00 +21°C° 0.1 mm 2 mps 682 mmHg 83%

    27 September, Wednesday

    Time Temperature Precipitation Wind Pressure Humidity
    00:00 +21°C° 0.2 mm 2 mps 682 mmHg 86%
    01:00 +21°C° 0.2 mm 3 mps 681 mmHg 88%
    02:00 +21°C° 0.2 mm 3 mps 680 mmHg 90%
    03:00 +21°C° 0.2 mm 2 mps 680 mmHg 90%
    04:00 +21°C° 0.2 mm 2 mps 681 mmHg 91%
    05:00 +21°C° 0.2 mm 2 mps 681 mmHg 91%
    06:00 +21°C° 0.2 mm 2 mps 682 mmHg 89%
    07:00 +22°C° 0.2 mm 3 mps 682 mmHg 87%
    08:00 +24°C° 0.2 mm 3 mps 683 mmHg 85%
    09:00 +25°C° 0.5 mm 3 mps 683 mmHg 81%
    10:00 +26°C° 0.5 mm 3 mps 683 mmHg 76%
    11:00 +27°C° 0.5 mm 3 mps 682 mmHg 71%
    12:00 +27°C° 1.6 mm 3 mps 682 mmHg 70%
    13:00 +28°C° 1.6 mm 3 mps 681 mmHg 70%
    14:00 +28°C° 1.6 mm 3 mps 680 mmHg 69%
    15:00 +27°C° 2.2 mm 3 mps 681 mmHg 74%
    16:00 +26°C° 2.2 mm 2 mps 681 mmHg 79%
    17:00 +25°C° 2.2 mm 2 mps 681 mmHg 84%
    18:00 +24°C° 0.9 mm 2 mps 681 mmHg 85%
    19:00 +24°C° 0.9 mm 2 mps 682 mmHg 85%
    20:00 +24°C° 0.9 mm 2 mps 682 mmHg 86%
    21:00 +23°C° 0.7 mm 2 mps 682 mmHg 87%
    22:00 +23°C° 0.7 mm 2 mps 682 mmHg 88%
    23:00 +23°C° 0.7 mm 2 mps 682 mmHg 89%

    28 September, Thursday

    Time Temperature Precipitation Wind Pressure Humidity
    00:00 +23°C° 0.6 mm 2 mps 681 mmHg 89%
    01:00 +22°C° 0.6 mm 3 mps 681 mmHg 90%
    02:00 +21°C° 0.6 mm 3 mps 680 mmHg 91%
    03:00 +21°C° 0.6 mm 3 mps 680 mmHg 91%
    04:00 +21°C° 0.6 mm 3 mps 681 mmHg 92%
    05:00 +21°C° 0.6 mm 3 mps 681 mmHg 92%
    06:00 +22°C° 0.3 mm 3 mps 681 mmHg 90%
    07:00 +22°C° 0.3 mm 3 mps 682 mmHg 88%
    08:00 +24°C° 0.3 mm 3 mps 683 mmHg 86%
    09:00 +25°C° 0.8 mm 3 mps 683 mmHg 81%
    10:00 +26°C° 0.8 mm 4 mps 683 mmHg 76%
    11:00 +27°C° 0.8 mm 4 mps 682 mmHg 71%
    12:00 +27°C° 0.6 mm 4 mps 682 mmHg 69%
    13:00 +28°C° 0.6 mm 3 mps 681 mmHg 68%
    14:00 +28°C° 0.6 mm 3 mps 681 mmHg 66%
    15:00 +27°C° 1.2 mm 3 mps 681 mmHg 70%
    16:00 +26°C° 1.2 mm 3 mps 681 mmHg 74%
    17:00 +26°C° 1.2 mm 3 mps 681 mmHg 79%
    18:00 +25°C° 0.7 mm 3 mps 682 mmHg 81%
    19:00 +24°C° 0.7 mm 3 mps 682 mmHg 83%
    20:00 +24°C° 0.7 mm 3 mps 682 mmHg 85%
    21:00 +22°C° 0.2 mm 3 mps 682 mmHg 87%
    22:00 +22°C° 0.2 mm 3 mps 682 mmHg 88%
    23:00 +22°C° 0.2 mm 3 mps 682 mmHg 90%
    Show more